Weather History for Driggs, ID

Change the Weather History Date:

Wednesday, June 4, 2014

  Actual Average (KRXE) Record (KRXE)
Temperature  
Mean Temperature 58 °F 57 °F  
Max Temperature 70 °F 71 °F 91 °F (2012)
Min Temperature 43 °F 44 °F 33 °F (2011)
Degree Days  
Heating Degree Days 8 8  
Month to date heating degree days 33  
Since 1 June heating degree days 33  
Since 1 July heating degree days 7991  
Cooling Degree Days 0 0  
Month to date cooling degree days 0  
Year to date cooling degree days 4  
Since 1 June cooling degree days 0  
Growing Degree Days 8 (Base 50)    
Moisture  
Dew Point 34 °F    
Average Humidity 44    
Maximum Humidity 71    
Minimum Humidity 19    
Precipitation  
Precipitation 0.07 in 0.06 in 1.09 in (1983)
Month to date precipitation 0.27  
Year to date precipitation 6.14  
Sea Level Pressure  
Sea Level Pressure 29.89 in    
Wind  
Wind Speed 10 mph (SSE)    
Max Wind Speed 31 mph    
Max Gust Speed 37 mph    
Visibility 10 miles    
Events Rain , Thunderstorm    
T = Trace of Precipitation, MM = Missing Value Source: NWS Daily Summary

Daily Weather History Graph

Daily Weather History Graph

Search for Another Location

Airport:

Trip Planner

Search our weather history database for the weather conditions in past years. The results will help you decide how hot, cold, wet, or windy it might be!

Date:

Astronomy

Jun. 04, 2014 Rise Set
Actual Time 5:44 AM MDT 9:01 PM MDT
Civil Twilight 5:08 AM MDT 9:37 PM MDT
Nautical Twilight 4:22 AM MDT 10:23 PM MDT
Astronomical Twilight 3:26 AM MDT 11:20 PM MDT
Moon 12:15 PM MDT (6/4) 12:54 AM MDT (6/4)
Length of Visible Light 16h 28m
Length of Day
15h 17m
Waxing Crescent, 39% of the Moon is Illuminated
Jun 4
Waxing Crescent
Jun 5
First Quarter
Jun 12
Full
Jun 19
Last Quarter
Jun 27
New

Hourly Weather History & Observations

Time (MDT) Temp. Windchill Dew Point Humidity Pressure Visibility Wind Dir Wind Speed Gust Speed Precip Events Conditions
12:56 AM 54.9 °F - 32.0 °F 42% 29.81 in 10.0 mi SSE 10.4 mph - N/A   Clear
1:56 AM 54.9 °F - 32.0 °F 42% 29.78 in 10.0 mi South 15.0 mph - N/A   Clear
2:56 AM 52.0 °F - 31.1 °F 45% 29.78 in 10.0 mi SSE 9.2 mph - N/A   Clear
3:56 AM 47.8 °F - 31.1 °F 52% 29.82 in 10.0 mi South 5.8 mph - N/A   Clear
4:56 AM 45.9 °F 40.8 °F 31.1 °F 56% 29.83 in 10.0 mi SE 10.4 mph - N/A   Clear
5:56 AM 45.9 °F 42.3 °F 30.0 °F 54% 29.87 in 10.0 mi SE 6.9 mph - N/A   Scattered Clouds
6:56 AM 52.9 °F - 32.9 °F 47% 29.84 in 10.0 mi South 6.9 mph - N/A   Mostly Cloudy
7:56 AM 52.9 °F - 36.0 °F 53% 29.85 in 10.0 mi SSE 3.5 mph - N/A   Clear
8:56 AM 61.0 °F - 32.9 °F 35% 29.85 in 10.0 mi SSW 9.2 mph - N/A   Mostly Cloudy
9:56 AM 61.9 °F - 37.9 °F 41% 29.85 in 10.0 mi NW 9.2 mph - N/A   Scattered Clouds
10:56 AM 64.9 °F - 36.0 °F 34% 29.84 in 10.0 mi North 8.1 mph - N/A   Clear
11:56 AM 65.8 °F - 32.0 °F 28% 29.84 in 10.0 mi WSW 5.8 mph 16.1 mph N/A   Clear
12:56 PM 66.9 °F - 27.1 °F 22% 29.82 in 10.0 mi West 15.0 mph 32.2 mph N/A   Scattered Clouds
1:56 PM 70.9 °F - 26.1 °F 19% 29.81 in 10.0 mi WSW 23.0 mph 28.8 mph N/A   Clear
3:04 PM 64.4 °F - 32.0 °F 30% 30.07 in 10.0 mi NNW 31.1 mph 36.8 mph N/A   Scattered Clouds
3:30 PM 57.2 °F - 33.8 °F 41% 30.08 in 10.0 mi NNE 24.2 mph 33.4 mph 0.00 in Rain , Thunderstorm Light Thunderstorms and Rain
3:56 PM 52.9 °F - 36.9 °F 55% 29.94 in 2.5 mi Variable 6.9 mph - 0.06 in Rain , Thunderstorm Rain
4:06 PM 51.8 °F - 39.2 °F 62% 30.10 in 10.0 mi ENE 15.0 mph - 0.01 in Rain , Thunderstorm Light Thunderstorms and Rain
4:23 PM 53.6 °F - 39.2 °F 58% 30.11 in 10.0 mi ENE 11.5 mph - 0.01 in Rain Light Rain
4:56 PM 61.0 °F - 43.9 °F 53% 29.90 in 10.0 mi ENE 13.8 mph 25.3 mph 0.01 in   Scattered Clouds
5:56 PM 64.9 °F - 36.0 °F 34% 29.88 in 10.0 mi Variable 4.6 mph - N/A   Clear
6:56 PM 64.9 °F - 32.9 °F 30% 29.86 in 10.0 mi Calm Calm - N/A   Clear
7:56 PM 63.9 °F - 34.0 °F 33% 29.86 in 10.0 mi Calm Calm - N/A   Clear
8:56 PM 59.0 °F - 39.9 °F 49% 29.86 in 10.0 mi WSW 4.6 mph - N/A   Clear
9:56 PM 47.8 °F - 38.8 °F 71% 29.91 in 10.0 mi East 8.1 mph - N/A   Clear
11:56 PM 43.9 °F - 34.9 °F 71% 29.91 in 10.0 mi Calm Calm - N/A   Clear